Location: Alafon
(8.4500°N, 4.2333°E)
Time: 16:25:44
(UTC+00:00)

A-11 Canister half - Pass Details

Date: 07 August 2021
Orbit: 1515 x 1685 km, 47.2° (Epoch: 19 September)

Event Time Altitude Azimuth Distance (km) Brightness Sun altitude
Rises 14:24:10 0° 260° (W) 4,683 12.1 51.3°
Reaches altitude 10° 14:28:20 10° 277° (W) 3,722 11.9 50.3°
Maximum altitude 14:34:43 20° 320° (NW) 3,049 11.5 48.8°
Drops below altitude 10° 14:41:15 10° 4° (N) 3,809 11.3 47.3°
Sets 14:45:40 0° 20° (NNE) 4,827 11.6 46.2°
